Home > Weather > Bologna > Past weeks

Flag for Italy Past Weather in Bologna, Italy — Yesterday and Last 2 Weeks

Now
82 °F

Passing clouds.


Feels Like: 83 °F
Forecast: 66 / 92 °F
Wind: 6 mph from West

Location: Bologna / Borgo Panigale

Current Time: Jun 30, 2016 at 12:28:26 PM

Latest Report: Jun 30, 2016 at 11:50 AM


Visibility: N/A

Pressure: 29.98 "Hg

Humidity: 48%

Dew Point: 61 °F

Location of BolognaLocation

Past Weather in Bologna — Graph

°F

Bologna Temperature Yesterday

Maximum temperature yesterday: 88 °F (at 1:50 PM)
Minimum temperature yesterday: 68 °F (at 4:20 AM)
Average temperature yesterday: 78 °F

High & Low Weather Summary for the Past Weeks

 TemperatureHumidityPressure
High95 °F (Jun 25, 2:50 PM)94% (Jun 16, 11:20 PM)30.21 "Hg (Jun 16, 11:20 PM)
Low55 °F (Jun 18, 4:20 AM)30% (Jun 17, 2:50 PM)29.56 "Hg (Jun 16, 5:20 PM)
Average75 °F59%29.96 "Hg
* Reported Jun 15 10:20 AM — Jun 30 10:50 AM, Bologna, Weather by CustomWeather, © 2016

Note: Actual official high and low records may vary slightly from our data, if they occured in-between our weather recording intervals... More about our weather records

Advertising

Bologna Weather History for the Previous 24 Hours

Scroll right to see more
 ConditionsComfort  
Time TempWeatherWind HumidityBarometerVisibility
10:50 AM
Thu, Jun 30
81 °FPassing clouds.7 mph58%29.98 "HgN/A
10:20 AM79 °FPassing clouds.5 mph61%29.98 "HgN/A
9:50 AM77 °FPassing clouds.3 mph65%29.98 "HgN/A
9:20 AM75 °FPassing clouds.7 mph65%29.98 "HgN/A
8:50 AM75 °FPassing clouds.7 mph65%29.98 "HgN/A
8:20 AM73 °FSunny.6 mph69%29.98 "Hg10 mi
7:50 AM72 °FPassing clouds.7 mph69%29.98 "HgN/A
7:20 AM70 °FPassing clouds.5 mph78%29.98 "HgN/A
6:50 AM68 °FSunny.1 mph83%29.95 "Hg10 mi
6:20 AM68 °FClear.3 mph83%29.95 "Hg10 mi
5:50 AM68 °FClear.3 mph78%29.95 "Hg10 mi
5:20 AM68 °FPassing clouds.3 mph78%29.95 "HgN/A
4:50 AM70 °FClear.5 mph73%29.95 "Hg10 mi
4:20 AM70 °FPassing clouds.3 mph78%29.92 "HgN/A
3:50 AM70 °FClear.2 mph73%29.95 "Hg10 mi
3:20 AM70 °FClear.3 mph78%29.95 "Hg10 mi
2:50 AM70 °FPassing clouds.3 mph73%29.95 "HgN/A
2:20 AM68 °FClear.1 mph83%29.95 "Hg10 mi
1:50 AM68 °FClear.2 mph78%29.95 "Hg10 mi
1:20 AM70 °FClear.2 mph73%29.95 "Hg10 mi
12:50 AM72 °FClear.3 mph69%29.95 "Hg10 mi
12:20 AM72 °FClear.5 mph69%29.95 "Hg10 mi
11:50 PM
Wed, Jun 29
72 °FClear.7 mph69%29.95 "Hg10 mi
11:20 PM73 °FClear.7 mph65%29.95 "Hg10 mi
10:50 PM75 °FClear.8 mph57%29.95 "Hg10 mi
10:20 PM75 °FClear.9 mph57%29.95 "Hg10 mi
9:50 PM77 °FSunny.9 mph54%29.95 "Hg10 mi
9:20 PM79 °FSunny.12 mph51%29.92 "Hg10 mi
8:50 PM79 °FSunny.10 mph48%29.92 "Hg10 mi
8:20 PM82 °FSunny.9 mph42%29.92 "Hg10 mi
7:50 PM82 °FPassing clouds.9 mph45%29.92 "HgN/A
7:20 PM84 °FPassing clouds.10 mph43%29.92 "HgN/A
6:50 PM84 °FPassing clouds.10 mph40%29.92 "HgN/A
6:20 PM86 °FPassing clouds.12 mph40%29.92 "HgN/A
5:50 PM86 °FPassing clouds.12 mph38%29.92 "HgN/A
5:20 PM88 °FPassing clouds.10 mph38%29.92 "HgN/A
4:50 PM88 °FSunny.10 mph35%29.95 "Hg10 mi
4:20 PM88 °FSunny.12 mph33%29.95 "Hg10 mi
3:50 PM88 °FPassing clouds.9 mph33%29.95 "HgN/A
3:20 PM88 °FPassing clouds.8 mph33%29.95 "HgN/A
2:50 PM88 °FSunny.9 mph35%29.95 "Hg10 mi
2:20 PM88 °FPassing clouds.9 mph33%29.95 "HgN/A
1:50 PM88 °FPassing clouds.8 mph33%29.98 "HgN/A
1:20 PM86 °FPassing clouds.8 mph33%29.98 "HgN/A
12:50 PM86 °FPassing clouds.7 mph33%30.01 "HgN/A
12:20 PM86 °FPassing clouds.6 mph35%30.01 "HgN/A
Weather by CustomWeather, © 2016

See weather overviewHow to use our weather pages